Location: Temple Hill
(37.3073°N, 88.6303°W)
Time: 16:31:32
(UTC+00:00)

ATLAS 2AS CENTAUR R/B - Pass Details

Date: 23 November 2020
Orbit: 943 x 1268 km, 63.7° (Epoch: 16 January)

Event Time Altitude Azimuth Distance (km) Brightness Sun altitude
Rises 12:06:45 0° 228° (SW) 4,170 5.5 -7.4°
Reaches altitude 10° 12:09:36 10° 233° (SW) 3,228 4.9 -6.9°
Maximum altitude 12:17:14 52° 308° (NW) 1,546 3.2 -5.5°
Drops below altitude 10° 12:24:54 10° 24° (NNE) 3,233 5.2 -4.1°
Sets 12:27:47 0° 29° (NNE) 4,177 5.9 -3.5°
